Terminal Aerodrome Forecast
Issued by NWS

Home | Current Version | Previous Version | Graphics & Text | Print | Product List | Glossary On
Versions: 1 2 3 4 5 6 7 8 9 10 11 12 13 14 15 16 17 18 19
134
FTUS43 KLSX 231722
TAFSUS
TAF
KSUS 231722Z 2318/2418 28005KT P6SM VCSH SCT025 BKN050
     FM232000 32008KT P6SM VCTS OVC025CB
     FM232200 32007KT P6SM VCSH BKN030
     FM240100 32006KT P6SM BKN050
     FM241200 30006KT P6SM BKN025=

USA.gov is the U.S. government's official web portal to all federal, state and local government web resources and services.